User: anonymous   Login
Location: Unspecified
(0.0000°N, 0.0000°E)
Time: 12:48:51
(UTC+00:00)
Language:

USA 179 - Orbit

View from above orbital plane
View from above orbital plane
View from above satellite
View from above satellite

Ground track
Ground track

The orbit data is extracted from the following two-line orbital elements,

1 28384U 04034A   17086.37117170 0.00000000  00000-0  00000-0 0    08
2 28384  63.1495 322.9122 7341546 270.8821  14.0585  2.00623000    00
Epoch (UTC): 27 March 2017 08:54:29
Eccentricity: 0.7341546
inclination: 63.1495°
perigee height: 681 km
apogee height: 39672 km
right ascension of ascending node: 322.9122°
argument of perigee: 270.8821°
revolutions per day: 2.00623000
mean anomaly at epoch: 14.0585°
orbit number at epoch: 0

The dashed part of the orbit path shows where the satellite is in the earth's shadow,  

DLR